Weather History for Asheboro, NC

Change the Weather History Date:

Saturday, August 10, 2013

  Actual Average Record
Temperature  
Mean Temperature 80 °F -  
Max Temperature 89 °F 86 °F 102 °F (2007)
Min Temperature 71 °F 68 °F 57 °F (1944)
Cooling Degree Days 15    
Growing Degree Days 30 (Base 50)    
Moisture  
Dew Point 73 °F    
Average Humidity 89    
Maximum Humidity 100    
Minimum Humidity 57    
Precipitation  
Precipitation 0.12 in - - ()
Sea Level Pressure  
Sea Level Pressure 30.12 in    
Wind  
Wind Speed 3 mph (SW)    
Max Wind Speed 10 mph    
Max Gust Speed 17 mph    
Visibility 9 miles    
Events Rain    
Averages and records for this station are not official NWS values.
T = Trace of Precipitation, MM = Missing Value Source: NWS Daily Summary

Daily Weather History Graph

Daily Weather History Graph

Search for Another Location

Airport:

Trip Planner

Search our weather history database for the weather conditions in past years. The results will help you decide how hot, cold, wet, or windy it might be!

Date:

Astronomy

Aug. 10, 2013 Rise Set
Actual Time 6:34 AM EDT 8:14 PM EDT
Civil Twilight 6:07 AM EDT 8:41 PM EDT
Nautical Twilight 5:34 AM EDT 9:14 PM EDT
Astronomical Twilight 4:59 AM EDT 9:49 PM EDT
Moon 10:09 AM EDT (8/10) 10:05 PM EDT (8/10)
Length of Visible Light 14h 34m
Length of Day
13h 39m
Waxing Crescent, 14% of the Moon is Illuminated
Aug 10
Waxing Crescent
Aug 14
First Quarter
Aug 20
Full
Aug 28
Last Quarter
Sep 5
New

Hourly Weather History & Observations

Time (EDT) Temp. Heat Index Dew Point Humidity Pressure Visibility Wind Dir Wind Speed Gust Speed Precip Events Conditions
12:15 AM 74.1 °F - 73.8 °F 99% 30.11 in 7.0 mi Calm Calm - N/A   Clear
12:35 AM 74.7 °F - 73.4 °F 96% 30.11 in 10.0 mi Calm Calm - N/A   Clear
12:55 AM 73.6 °F - 73.4 °F 99% 30.12 in 7.0 mi Calm Calm - N/A   Clear
1:15 AM 73.4 °F - 73.2 °F 99% 30.11 in 5.0 mi Calm Calm - N/A   Clear
1:35 AM 72.9 °F - 72.9 °F 100% 30.11 in 5.0 mi Calm Calm - N/A   Clear
1:55 AM 72.9 °F - 72.7 °F 99% 30.11 in 5.0 mi Calm Calm - N/A   Clear
2:15 AM 73.8 °F - 72.5 °F 96% 30.11 in 10.0 mi Calm Calm - N/A   Clear
2:35 AM 74.3 °F - 72.1 °F 93% 30.11 in 10.0 mi South 3.5 mph - N/A   Clear
2:55 AM 74.3 °F - 72.0 °F 92% 30.11 in 10.0 mi South 3.5 mph - N/A   Clear
3:15 AM 74.7 °F - 72.0 °F 91% 30.10 in 10.0 mi Calm Calm - N/A   Clear
3:35 AM 74.3 °F - 72.0 °F 92% 30.10 in 10.0 mi South 3.5 mph - N/A   Clear
3:55 AM 74.7 °F - 72.1 °F 92% 30.11 in 10.0 mi SW 3.5 mph - N/A   Clear
4:15 AM 74.3 °F - 72.1 °F 93% 30.10 in 10.0 mi South 3.5 mph - N/A   Clear
4:35 AM 74.3 °F - 72.7 °F 95% 30.10 in 10.0 mi SSW 3.5 mph - N/A   Clear
4:55 AM 73.8 °F - 72.7 °F 96% 30.10 in 10.0 mi Calm Calm - N/A   Clear
5:15 AM 73.8 °F - 72.9 °F 97% 30.10 in 10.0 mi SSW 3.5 mph - N/A   Clear
5:35 AM 73.8 °F - 72.9 °F 97% 30.11 in 10.0 mi SSW 4.6 mph - N/A   Clear
5:55 AM 74.3 °F - 73.2 °F 96% 30.11 in 10.0 mi SSW 4.6 mph - N/A   Clear
6:15 AM 74.3 °F - 73.0 °F 96% 30.11 in 10.0 mi SSW 4.6 mph - N/A   Clear
6:35 AM 74.3 °F - 73.0 °F 96% 30.11 in 7.0 mi SSW 4.6 mph - N/A   Clear
6:55 AM 74.3 °F - 73.4 °F 97% 30.11 in 7.0 mi SSW 5.8 mph - N/A   Clear
7:15 AM 74.5 °F - 73.4 °F 96% 30.12 in 10.0 mi SSW 4.6 mph - N/A   Clear
7:35 AM 74.8 °F - 73.4 °F 95% 30.12 in 10.0 mi SSW 5.8 mph - N/A   Clear
7:55 AM 75.0 °F - 73.4 °F 95% 30.12 in 10.0 mi SSW 6.9 mph - N/A   Clear
8:15 AM 75.7 °F - 73.6 °F 93% 30.12 in 10.0 mi SSW 8.1 mph - N/A   Clear
8:35 AM 76.3 °F - 73.9 °F 92% 30.13 in 10.0 mi SW 8.1 mph - N/A   Scattered Clouds
8:55 AM 76.5 °F - 74.3 °F 93% 30.13 in 10.0 mi SW 8.1 mph - N/A   Scattered Clouds
9:15 AM 77.9 °F - 74.5 °F 89% 30.13 in 10.0 mi SSW 8.1 mph - N/A   Scattered Clouds
9:35 AM 78.4 °F - 74.7 °F 88% 30.14 in 10.0 mi SSW 5.8 mph - N/A   Mostly Cloudy
9:55 AM 79.0 °F - 75.2 °F 88% 30.14 in 10.0 mi WSW 5.8 mph - N/A   Mostly Cloudy
10:15 AM 79.7 °F - 74.8 °F 85% 30.14 in 10.0 mi SW 3.5 mph - N/A   Scattered Clouds
10:35 AM 80.6 °F 86.0 °F 74.8 °F 83% 30.14 in 10.0 mi SW 8.1 mph - N/A   Scattered Clouds
10:55 AM 81.3 °F 87.4 °F 74.8 °F 81% 30.14 in 10.0 mi WSW 5.8 mph - N/A   Scattered Clouds
11:15 AM 82.2 °F 88.8 °F 74.7 °F 78% 30.15 in 10.0 mi SW 8.1 mph - N/A   Scattered Clouds
11:35 AM 83.1 °F 90.7 °F 75.2 °F 77% 30.14 in 10.0 mi West 4.6 mph - N/A   Scattered Clouds
11:55 AM 83.5 °F 91.2 °F 75.4 °F 76% 30.15 in 10.0 mi West 4.6 mph - N/A   Scattered Clouds
12:15 PM 83.8 °F 91.8 °F 75.2 °F 75% 30.14 in 10.0 mi WSW 4.6 mph - N/A   Clear
12:35 PM 86.0 °F 95.5 °F 75.7 °F 71% 30.14 in 10.0 mi WSW 8.1 mph - N/A   Clear
12:55 PM 86.0 °F 94.6 °F 74.7 °F 69% 30.13 in 10.0 mi WSW 4.6 mph - N/A   Clear
1:15 PM 87.8 °F 96.6 °F 74.1 °F 64% 30.12 in 10.0 mi WSW 4.6 mph - N/A   Clear
1:35 PM 87.8 °F 96.1 °F 73.9 °F 63% 30.11 in 10.0 mi SW 5.8 mph - N/A   Clear
1:55 PM 88.9 °F 96.1 °F 72.5 °F 58% 30.10 in 10.0 mi SW 6.9 mph - N/A   Scattered Clouds
2:15 PM 88.9 °F 96.6 °F 72.9 °F 59% 30.10 in 10.0 mi SSW 8.1 mph - N/A   Clear
2:35 PM 89.4 °F 96.8 °F 72.5 °F 57% 30.10 in 10.0 mi SSW 5.8 mph - N/A   Clear
2:55 PM 88.5 °F 96.3 °F 73.2 °F 60% 30.09 in 10.0 mi WSW 6.9 mph - N/A   Mostly Cloudy
3:15 PM 89.4 °F 96.8 °F 72.5 °F 57% 30.09 in 10.0 mi WSW 3.5 mph - N/A   Scattered Clouds
3:35 PM 88.7 °F 97.7 °F 74.1 °F 62% 30.10 in 10.0 mi West 4.6 mph - N/A   Clear
3:55 PM 80.1 °F 82.8 °F 68.7 °F 68% 30.12 in 10.0 mi North 8.1 mph 17.3 mph N/A   Mostly Cloudy
4:15 PM 77.0 °F - 69.6 °F 78% 30.12 in 10.0 mi NNW 10.4 mph 17.3 mph N/A Rain Light Rain
4:35 PM 74.5 °F - 70.3 °F 87% 30.13 in 10.0 mi SW 4.6 mph - N/A Rain Rain
4:55 PM 72.7 °F - 71.1 °F 95% 30.11 in 4.0 mi Calm Calm - 0.07 in Rain Light Rain
5:15 PM 73.4 °F - 71.2 °F 93% 30.12 in 10.0 mi Calm Calm - 0.01 in Rain Rain
5:35 PM 73.4 °F - 72.5 °F 97% 30.13 in 10.0 mi SSW 5.8 mph - 0.02 in Rain Light Rain
5:55 PM 72.9 °F - 72.3 °F 98% 30.15 in 7.0 mi SW 5.8 mph - 0.03 in Rain Light Rain
6:15 PM 72.5 °F - 71.8 °F 98% 30.13 in 10.0 mi Calm Calm - 0.01 in Rain Light Rain
6:35 PM 72.0 °F - 72.0 °F 100% 30.12 in 10.0 mi WNW 3.5 mph - 0.01 in Rain Light Rain
6:55 PM 71.8 °F - 71.8 °F 100% 30.13 in 10.0 mi Calm Calm - 0.01 in   Clear
7:15 PM 71.8 °F - 71.8 °F 100% 30.12 in 10.0 mi Calm Calm - N/A   Clear
7:35 PM 72.0 °F - 72.0 °F 100% 30.13 in 10.0 mi Calm Calm - N/A   Clear
7:55 PM 72.5 °F - 72.5 °F 100% 30.13 in 10.0 mi Calm Calm - N/A   Clear
8:15 PM 72.5 °F - 72.5 °F 100% 30.12 in 10.0 mi Calm Calm - N/A   Clear
8:35 PM 72.1 °F - 72.1 °F 100% 30.12 in 10.0 mi Calm Calm - N/A   Clear
8:55 PM 72.1 °F - 72.1 °F 100% 30.12 in 10.0 mi South 3.5 mph - N/A   Clear
9:15 PM 72.1 °F - 72.1 °F 100% 30.13 in 10.0 mi South 3.5 mph - N/A   Clear
9:35 PM 72.5 °F - 72.5 °F 100% 30.13 in 10.0 mi South 5.8 mph - N/A   Scattered Clouds
9:55 PM 72.1 °F - 72.1 °F 100% 30.14 in 10.0 mi SW 5.8 mph - N/A   Clear
10:15 PM 72.1 °F - 72.1 °F 100% 30.15 in 10.0 mi Calm Calm - N/A   Mostly Cloudy
10:35 PM 72.1 °F - 72.1 °F 100% 30.15 in 10.0 mi Calm Calm - N/A   Scattered Clouds
10:55 PM 72.1 °F - 72.1 °F 100% 30.15 in 10.0 mi Calm Calm - N/A   Clear
11:15 PM 71.8 °F - 71.8 °F 100% 30.14 in 7.0 mi Calm Calm - N/A   Clear
11:35 PM 71.6 °F - 71.6 °F 100% 30.14 in 7.0 mi Calm Calm - N/A   Clear
11:55 PM 71.6 °F - 71.6 °F 100% 30.14 in 10.0 mi Calm Calm - 0.01 in   Clear